Location: Smyrna_Hopewell
(35.6500°N, 81.0330°W)
Time: 09:40:55
(UTC-04:00)

Cosmos 2221 - Visible Passes

Search period start: 28 September 2016 00:00
Search period end: 08 October 2016 00:00
Orbit: 593 x 618 km, 82.5° (Epoch: 28 September)

Date Brightness Start Highest point End Pass type
(mag) Time Alt. Az. Time Alt. Az. Time Alt. Az.
01 Oct 4.9 21:21:55 14° N 21:21:55 14° N 21:22:32 10° N visible
02 Oct 4.5 21:33:38 23° NNW 21:33:38 23° NNW 21:35:32 10° N visible
03 Oct 3.6 20:03:55 10° SE 20:07:15 22° E 20:10:35 10° NE visible
03 Oct 4.7 21:41:08 10° SW 21:44:41 24° WNW 21:48:13 10° NNW visible
04 Oct 2.9 20:16:18 10° SSE 20:20:18 38° E 20:24:18 10° NNE visible
04 Oct 5.5 21:55:39 10° WSW 21:58:01 14° WNW 22:00:23 10° NW visible
05 Oct 2.4 20:29:06 10° S 20:33:24 70° E 20:37:42 10° NNE visible
06 Oct 5.8 06:41:01 10° NE 06:42:52 12° ENE 06:44:42 10° E visible
06 Oct 2.9 20:42:17 10° SSW 20:46:34 64° W 20:50:51 10° N visible
07 Oct 5.4 06:52:55 10° NNE 06:56:13 21° ENE 06:59:31 10° SE visible
07 Oct 4.1 19:20:06 10° ESE 19:22:34 15° E 19:25:02 10° NE visible
07 Oct 4.1 20:55:50 10° SW 20:59:48 35° W 21:03:45 10° NNW visible
